GFSGL_sfc_30mbdewp_273.txt.gz
Dewpoint
66 67 68 69 69 70 69 69 69 69 68 68 68 67 67 68 68 69 69 70 70 70 71 70 69 68 68 68 68 64 58 56 55 58 59 59 58 59 60 59 60 59 59
67 68 68 70 70 71 70 70 70 69 69 69 68 68 69 70 71 71 71 70 70 69 70 70 70 69 68 68 66 61 57 57 56 56 58 58 57 59 58 58 59 59 57
68 69 70 70 70 71 70 70 70 70 69 70 72 72 73 72 71 71 71 71 71 70 70 70 69 69 68 67 66 60 58 57 55 55 55 57 58 59 58 57 58 57 57
69 70 70 70 70 70 71 71 72 72 71 70 71 71 70 71 70 70 70 71 71 71 71 71 70 69 68 67 65 60 59 55 54 55 54 55 57 58 58 56 56 57 56
70 70 70 71 71 71 71 69 68 68 68 68 69 70 70 71 71 71 71 71 70 70 70 71 70 69 69 67 60 59 57 54 54 54 54 54 55 56 56 57 55 56 56
70 69 70 70 70 69 68 69 69 68 69 70 69 70 70 71 71 70 70 70 69 69 69 69 69 70 68 65 60 60 57 54 53 53 53 53 53 56 57 57 56 55 54
67 66 66 66 67 67 68 69 68 69 69 69 70 70 70 71 71 69 67 67 67 69 69 67 66 65 65 62 61 60 58 56 54 54 53 53 52 54 57 57 56 56 55
67 66 67 68 68 69 68 68 69 69 69 68 69 70 71 71 67 66 66 68 68 69 68 65 64 61 59 59 58 59 59 58 55 54 53 53 53 54 56 56 56 56 56
68 68 69 68 67 67 66 67 66 67 66 67 68 66 66 61 59 62 67 69 69 68 67 65 62 58 57 56 54 56 56 56 57 57 55 55 56 55 56 55 54 54 54
67 67 68 66 65 64 65 65 66 68 65 66 66 64 62 62 58 59 61 66 66 68 67 64 61 57 54 55 53 54 55 55 55 56 56 56 56 56 57 57 56 55 55
66 65 66 64 62 63 63 61 61 62 63 64 65 64 63 60 59 58 58 61 61 65 66 64 62 54 54 54 54 54 54 53 53 53 52 52 52 53 55 58 58 57 56
65 64 64 63 62 62 60 59 60 60 60 60 62 64 62 61 59 57 57 57 59 63 65 65 61 53 55 56 58 54 52 52 51 51 51 51 51 52 55 57 59 58 58
62 63 63 61 60 61 59 59 59 59 59 59 60 60 60 61 59 56 56 56 58 60 60 62 62 54 57 60 59 55 52 50 50 50 50 51 51 53 56 57 58 59 59
59 60 61 62 60 61 59 59 58 57 57 58 58 57 57 56 54 53 54 55 56 58 58 59 61 59 58 58 58 55 53 52 53 53 53 54 55 56 56 57 57 58 58
57 56 57 59 60 58 57 57 57 56 58 57 56 55 53 51 51 49 49 52 53 53 52 60 59 58 58 57 58 58 55 55 54 55 56 56 56 56 55 56 57 57 56
51 53 56 58 58 57 56 54 51 52 54 52 51 51 51 50 50 52 52 53 53 52 57 60 60 59 59 58 57 58 57 56 55 55 56 56 56 55 54 55 55 57 56
51 51 51 55 55 56 55 53 52 51 50 51 50 49 48 48 50 50 53 56 58 57 59 61 60 60 59 58 57 57 57 57 56 55 56 55 55 55 54 54 54 55 55
49 51 53 55 55 54 52 51 50 49 48 49 51 50 48 48 49 49 52 55 54 55 54 55 57 60 60 59 59 58 58 57 56 55 55 55 54 54 53 53 54 54 54
51 51 51 50 50 50 49 49 48 48 47 48 49 48 48 47 48 49 49 51 50 50 51 51 52 53 56 60 59 59 59 59 59 58 58 57 55 54 54 54 53 55 55
50 49 47 47 47 47 47 46 46 46 46 47 47 46 46 46 46 46 47 47 48 48 48 49 50 51 52 54 57 60 60 59 59 59 59 58 57 55 54 54 53 53 56
47 47 46 44 44 44 44 43 44 44 44 44 43 45 43 45 45 45 46 46 45 45 46 46 47 49 50 51 52 53 59 60 60 60 60 60 58 57 56 55 55 54 55
44 44 43 43 43 42 42 43 43 43 43 42 42 43 42 43 44 43 44 44 45 45 46 46 46 48 48 49 49 50 52 55 61 61 61 61 59 58 57 56 57 56 55
43 43 42 42 42 41 41 41 40 41 41 42 41 42 42 41 42 43 43 44 45 45 46 46 46 47 47 48 49 49 49 50 51 53 61 61 60 58 58 56 56 55 54
42 42 41 41 41 40 40 40 41 41 40 40 39 39 40 40 42 43 44 44 45 45 45 45 45 45 45 45 45 46 48 49 47 48 50 61 60 59 58 57 56 56 54
41 41 40 40 39 39 39 40 41 40 39 39 40 40 41 42 42 43 44 43 43 43 43 44 44 43 42 42 43 44 44 40 40 41 46 52 60 60 58 58 57 56 55
40 40 40 40 39 39 39 40 41 40 39 39 40 41 42 42 42 41 41 41 41 41 41 42 42 41 41 41 42 41 39 38 38 38 41 46 56 59 58 58 57 56 54

GFSGL_sfc_30mbdewp_276.txt.gz
Dewpoint
64 65 66 67 68 68 68 69 69 69 69 69 68 68 67 67 68 69 69 70 70 70 70 70 70 69 68 68 68 67 64 58 56 58 60 60 60 60 60 60 61 60 60
65 65 66 67 68 68 68 69 70 69 69 69 69 68 68 69 71 72 71 71 70 70 70 70 70 70 69 68 68 65 62 57 57 56 59 59 58 60 59 58 59 59 59
64 66 67 67 68 69 69 70 71 70 70 69 70 71 72 72 71 71 70 70 71 71 71 70 70 70 68 68 67 65 59 57 57 57 58 58 59 60 58 58 59 58 57
65 67 67 68 69 69 70 71 71 71 71 71 70 71 70 71 71 70 70 71 71 71 71 71 71 70 69 68 66 64 58 56 56 56 57 57 57 59 58 57 57 58 57
66 67 68 70 70 70 71 71 71 70 69 68 69 70 70 70 70 71 71 71 70 70 70 70 71 71 69 68 66 63 58 55 55 55 55 56 57 57 56 57 56 57 56
67 68 70 70 71 71 70 69 69 69 68 69 69 70 70 71 70 69 68 69 68 68 69 69 69 70 69 67 64 61 59 55 55 54 55 55 56 57 57 56 56 55 54
69 69 70 70 69 68 69 69 68 69 69 69 69 69 69 63 61 64 65 67 68 69 69 68 67 67 67 64 61 60 59 56 55 54 53 54 55 57 57 56 56 56 55
67 67 68 68 67 68 68 68 69 68 67 68 67 66 62 60 60 64 66 69 69 68 67 66 65 63 63 62 61 60 59 56 56 55 55 55 56 58 58 57 57 57 56
66 66 68 68 68 68 67 67 67 66 67 66 65 63 62 59 58 62 66 67 67 68 66 65 62 59 58 59 59 58 58 57 58 55 54 54 54 55 57 57 56 56 55
67 68 68 67 66 66 65 66 67 65 66 65 63 62 61 60 57 58 62 63 63 65 67 64 60 57 55 55 56 57 56 56 57 57 57 57 56 56 56 58 57 55 55
68 67 66 65 65 65 63 63 63 64 65 64 63 62 61 59 57 56 56 59 60 63 65 65 62 57 55 54 55 55 55 55 55 56 55 55 56 57 57 58 59 58 58
66 65 62 63 63 61 60 61 61 61 61 62 62 61 61 60 56 55 55 56 58 61 62 64 61 54 54 54 58 56 53 53 54 53 54 53 53 54 56 59 60 60 59
64 63 61 62 61 59 59 59 59 59 59 59 59 58 57 56 55 54 54 55 57 58 58 59 60 52 55 57 58 54 52 52 52 53 53 53 53 54 57 59 59 60 61
63 62 60 61 59 59 58 58 57 57 57 57 56 55 53 52 53 53 54 54 56 57 56 59 60 54 58 60 58 54 53 51 51 51 52 53 55 56 57 58 58 59 58
61 61 60 60 58 57 55 55 56 55 57 55 54 52 50 49 52 49 50 54 54 54 53 60 59 59 57 59 59 58 56 55 55 55 55 55 55 56 56 57 58 58 57
58 58 60 58 57 55 55 53 49 50 49 48 48 49 49 49 49 50 53 54 55 54 58 61 60 59 59 59 58 59 58 57 56 57 57 57 56 56 56 56 57 58 57
54 56 58 57 56 55 54 53 51 48 47 48 46 46 46 47 48 48 51 55 54 56 55 55 57 59 59 59 58 58 58 59 59 58 58 58 57 56 55 55 56 57 57
53 54 55 56 55 54 52 51 50 49 48 50 48 46 46 47 47 48 50 52 52 52 52 52 52 53 54 58 59 58 58 59 58 58 58 58 57 57 55 54 55 56 56
54 53 52 52 52 51 50 49 48 48 48 48 47 46 46 46 46 46 47 48 48 48 48 49 50 50 51 53 55 59 59 59 58 58 57 58 57 56 56 55 54 54 55
52 52 51 49 48 47 47 46 46 46 46 44 43 43 44 45 45 45 46 46 46 46 46 47 48 49 49 50 51 53 54 59 59 59 59 59 58 57 56 55 55 54 55
48 48 47 46 46 45 44 44 44 44 43 43 42 42 42 44 43 44 44 44 45 45 45 46 46 47 48 49 49 50 50 53 55 60 59 59 59 58 58 58 55 55 56
46 44 44 43 43 43 43 43 43 42 42 41 42 42 41 41 42 42 43 44 44 45 46 46 46 47 47 47 47 47 48 49 51 51 53 60 60 59 59 58 57 56 56
43 43 42 42 42 42 41 41 41 41 40 40 40 40 40 41 42 43 43 44 45 45 46 45 45 45 45 45 46 46 45 47 48 48 48 50 56 60 59 58 58 57 56
42 42 41 41 40 40 40 40 40 40 40 40 40 40 41 42 42 43 43 43 43 44 44 44 44 43 43 43 43 44 44 43 41 42 43 44 49 56 60 59 58 57 57
41 40 40 40 39 40 40 40 40 39 39 40 40 41 42 42 42 41 41 42 41 41 42 42 42 41 41 41 42 42 42 39 38 38 39 43 45 49 57 60 59 58 57
39 39 39 39 39 40 40 40 40 39 40 40 40 42 42 41 41 41 40 40 40 40 40 40 41 40 40 41 41 40 38 37 37 35 36 39 42 47 54 59 59 58 57

GFSGL_sfc_30mbdewp_279.txt.gz
Dewpoint
63 64 65 67 68 70 69 70 70 70 72 71 71 71 70 70 70 70 72 73 73 72 72 71 71 72 69 69 68 68 63 62 59 59 60 62 61 59 61 61 61 61 58
65 66 66 67 68 68 69 69 70 71 72 72 71 71 70 70 72 73 73 72 71 71 71 71 71 71 70 69 68 67 63 62 60 58 59 60 60 60 59 59 58 57 58
65 66 67 68 69 70 70 70 71 72 72 72 71 71 72 73 72 72 71 70 71 71 71 72 72 71 70 70 68 65 62 60 59 57 58 59 60 58 58 58 58 58 57
64 65 66 68 68 69 70 71 72 73 72 72 73 72 72 71 71 71 71 71 72 72 72 71 71 71 70 69 68 64 60 59 59 58 57 58 58 58 57 56 56 56 56
66 65 66 68 69 70 71 71 72 73 73 72 71 71 71 70 68 69 71 71 71 69 69 71 71 71 71 71 68 63 61 59 57 56 55 56 57 56 56 56 54 57 58
66 66 68 70 71 71 72 72 73 71 70 70 70 70 70 67 62 63 67 69 70 70 70 70 69 69 69 68 67 64 61 59 56 54 53 53 56 56 57 55 57 57 55
67 67 69 71 72 72 72 72 71 70 71 70 69 68 64 62 60 63 67 70 69 68 68 68 68 67 68 66 63 61 60 58 59 58 55 55 57 56 57 57 57 57 57
69 69 71 72 71 72 71 71 70 70 70 68 67 64 63 62 59 63 68 69 69 68 67 67 66 65 65 65 61 61 58 57 56 55 58 57 58 59 57 57 58 57 57
69 70 71 71 71 71 70 70 70 69 68 67 66 65 62 60 58 61 66 66 67 68 68 65 63 61 59 61 61 60 59 57 56 55 57 58 58 59 57 56 56 56 56
69 70 71 71 70 70 70 70 69 68 66 65 64 64 61 61 56 57 62 64 65 66 67 66 57 58 55 59 60 59 58 57 58 57 56 55 56 58 58 57 57 55 56
69 70 70 70 69 69 69 68 68 67 66 65 63 62 61 60 58 55 56 62 62 64 65 65 61 55 54 55 57 57 56 57 59 59 57 56 57 57 57 58 58 57 56
69 69 68 68 67 67 67 67 67 66 64 63 62 61 60 60 55 54 55 55 58 63 61 62 60 54 53 56 57 55 55 57 57 57 56 56 56 56 57 59 60 60 60
68 66 66 65 64 64 64 64 63 64 62 61 60 58 58 56 56 55 56 55 57 61 60 59 56 53 54 58 55 54 54 56 55 55 54 55 56 56 58 60 61 62 62
65 64 64 62 61 60 59 59 58 58 58 57 56 55 53 52 54 55 57 59 59 60 58 60 56 55 58 61 57 54 54 54 55 51 52 54 55 56 56 57 57 57 57
64 63 61 59 58 56 53 56 56 54 54 53 52 50 49 50 52 49 49 56 57 56 57 62 60 57 58 61 62 60 57 55 52 54 52 53 51 52 54 57 57 55 56
62 61 59 57 56 56 54 51 47 46 46 46 46 48 49 48 47 50 52 53 55 55 60 60 60 60 59 59 60 61 60 57 56 57 57 55 55 55 56 57 57 55 57
61 60 58 57 56 55 54 53 51 49 47 46 45 46 46 46 47 49 52 53 53 57 56 55 54 55 55 59 59 59 60 61 60 57 57 57 58 58 58 57 56 54 56
61 59 59 58 57 55 54 53 52 51 50 50 47 45 46 46 46 47 49 53 53 52 53 52 51 53 53 54 55 58 59 60 60 59 59 57 58 59 58 57 56 55 55
59 59 59 57 56 54 52 51 50 49 49 49 47 45 46 46 46 46 48 49 49 49 50 51 51 51 51 52 52 53 54 58 60 59 59 59 58 58 58 57 57 56 56
59 56 56 54 53 52 51 50 48 47 47 46 44 44 45 46 45 45 46 46 46 47 47 48 48 49 50 50 51 51 51 53 55 59 59 59 60 59 57 57 56 55 55
56 55 53 51 50 49 48 47 46 45 44 44 43 42 42 44 44 44 44 44 44 45 45 46 47 48 49 49 49 49 50 50 51 53 52 59 60 59 59 58 58 56 57
51 50 49 48 46 45 45 45 44 44 43 42 42 41 42 43 43 43 44 44 45 46 47 47 47 46 47 47 47 48 48 49 49 48 48 49 52 58 60 59 58 57 57
47 45 44 44 44 43 43 42 42 42 41 41 41 41 42 43 44 44 44 44 44 45 45 46 45 45 45 44 45 46 46 46 45 45 44 45 47 50 53 59 59 58 57
45 44 42 42 41 40 41 41 41 41 41 41 41 42 43 44 43 43 43 43 43 43 43 43 44 43 43 43 43 44 44 44 42 42 43 43 42 45 50 54 59 58 58
41 41 40 40 40 40 40 40 40 40 41 41 42 42 41 41 41 41 42 41 41 41 41 42 43 42 42 42 43 43 42 38 38 38 40 43 43 44 46 49 54 59 59
40 39 38 39 39 39 40 40 40 40 41 41 41 41 41 40 40 41 41 40 40 41 41 41 41 42 42 42 42 40 38 37 38 37 37 39 41 44 44 48 51 59 59

GFSGL_sfc_30mbdewp_285.txt.gz
Dewpoint
63 64 65 67 68 70 68 69 68 68 69 70 70 70 69 69 69 70 72 72 71 71 72 71 71 71 71 72 69 68 66 63 59 61 62 61 60 58 58 59 57 56 58
64 65 66 68 68 68 70 68 69 70 71 71 72 71 70 71 72 72 71 71 71 70 69 70 71 71 71 72 70 68 65 64 62 60 61 60 59 60 59 59 56 55 55
64 65 67 68 70 70 71 72 71 71 71 70 71 70 72 72 72 71 72 71 70 70 71 71 71 70 71 71 71 66 65 64 63 60 60 60 61 59 59 57 58 59 56
63 66 67 69 71 71 72 72 72 72 71 71 71 70 72 73 72 72 71 70 71 71 71 70 69 69 71 72 67 66 64 64 61 59 58 59 59 59 57 57 58 59 54
63 64 67 69 68 69 70 71 71 72 71 71 71 71 73 72 67 69 70 70 72 70 69 69 70 70 70 70 67 64 63 62 62 58 57 57 57 55 55 56 56 56 58
66 66 68 70 70 70 70 70 71 71 72 72 71 72 72 68 64 65 66 71 70 68 68 68 69 70 69 67 66 64 63 62 61 58 55 56 58 57 55 54 55 55 57
68 68 69 71 71 72 72 72 71 72 72 72 71 72 70 68 62 64 66 71 69 69 68 68 67 67 67 65 64 63 62 59 60 62 56 58 58 58 57 56 56 55 56
68 69 71 72 72 72 73 72 73 73 72 73 72 70 70 63 60 61 64 69 70 68 67 67 68 67 66 65 63 62 60 59 60 59 57 61 60 61 59 58 60 60 59
67 69 71 72 72 72 72 73 74 73 73 71 70 69 68 64 58 59 64 67 69 68 67 65 66 66 64 64 63 60 59 58 56 58 59 60 60 60 59 57 55 54 54
67 69 71 72 72 72 74 74 74 73 71 69 68 68 66 64 57 58 60 63 66 66 67 65 59 63 61 62 63 62 60 57 56 58 59 59 60 58 57 59 57 55 56
67 68 71 73 74 74 75 73 72 71 70 68 66 66 65 65 59 58 58 62 61 60 65 64 62 54 57 59 59 62 61 60 57 58 54 56 59 58 57 59 59 58 57
70 71 73 73 72 74 73 72 72 69 67 66 64 63 63 63 58 57 58 59 60 64 64 65 60 54 55 55 57 57 58 59 58 58 55 54 54 55 55 56 60 60 60
70 71 72 73 73 72 71 71 69 67 65 63 61 57 58 58 58 57 58 59 60 63 63 60 54 53 55 56 54 56 57 57 56 56 54 54 54 56 58 59 61 61 62
70 68 65 71 71 71 70 69 67 65 63 61 57 54 54 52 53 56 58 60 60 62 61 58 55 56 59 57 54 55 56 55 55 55 55 55 55 57 56 59 58 58 56
69 68 70 69 69 69 59 60 59 55 57 58 53 50 48 51 52 53 53 57 58 59 60 62 58 58 59 63 63 62 57 55 54 55 54 53 53 53 53 54 57 57 55
68 67 66 66 62 61 59 52 49 47 46 47 47 50 49 49 50 52 52 52 54 57 61 61 61 61 60 60 61 63 64 60 56 54 53 53 53 53 53 55 55 57 56
67 66 64 64 62 59 53 53 49 46 46 45 46 46 46 48 49 51 53 53 53 55 57 58 58 58 58 59 58 59 61 61 63 57 58 57 59 58 57 58 58 57 54
66 65 64 63 62 57 53 51 48 47 46 45 46 46 45 46 47 49 50 52 54 53 54 56 56 56 56 56 56 56 57 57 59 61 59 59 60 59 60 59 58 58 56
65 63 61 60 60 57 55 52 50 50 49 47 45 45 45 45 46 47 48 51 50 50 51 53 54 54 55 55 55 55 55 54 55 56 60 61 61 61 59 59 58 57 57
63 62 61 60 58 57 53 52 51 51 50 48 46 45 45 48 48 48 48 48 48 47 48 49 50 51 52 52 53 53 54 54 53 52 52 53 54 57 60 60 59 57 57
61 61 61 59 58 56 56 53 51 50 46 45 45 45 44 45 45 44 45 46 45 45 46 47 46 48 49 50 51 50 50 52 51 51 49 49 50 51 53 55 60 60 59
60 60 59 58 59 57 55 52 49 46 45 44 42 43 43 44 44 45 46 45 46 47 46 47 47 46 46 46 47 47 48 48 48 48 48 50 49 48 49 51 53 57 59
56 54 53 52 52 51 50 50 47 45 44 43 42 42 43 44 45 45 45 45 46 46 46 46 46 46 46 45 45 45 45 46 45 45 45 46 47 48 48 47 48 51 53
54 52 51 50 50 50 49 48 47 44 43 43 44 44 44 44 44 45 44 45 44 44 44 44 45 45 45 45 44 44 44 43 43 42 43 43 43 44 46 48 49 50 51
49 49 51 49 49 48 45 44 43 42 43 43 43 44 44 43 43 43 44 43 43 43 43 43 43 43 43 43 44 43 40 39 41 40 42 42 42 43 43 43 44 48 50
47 46 46 45 43 42 42 42 42 42 42 42 42 43 42 42 42 42 42 41 41 41 41 41 41 42 42 42 42 41 41 40 41 39 39 41 42 42 42 43 43 44 46

GFSGL_sfc_30mbdewp_291.txt.gz
Dewpoint
71 71 71 72 73 72 70 71 73 73 72 70 70 72 72 72 73 73 72 73 73 71 72 71 72 72 71 69 68 68 64 62 59 61 62 60 59 61 61 61 61 61 62
70 71 71 71 72 72 72 71 72 71 72 72 72 73 73 74 73 73 72 72 70 72 72 72 70 72 70 69 68 66 64 62 61 60 60 59 59 59 58 59 58 59 58
70 70 70 70 71 71 72 73 73 72 71 72 73 73 73 74 74 74 72 70 72 72 71 70 69 69 71 69 66 65 64 63 62 60 59 59 60 59 58 58 57 56 57
69 69 69 69 70 71 72 73 72 73 72 72 73 74 74 74 74 72 70 71 72 70 71 69 68 69 70 67 65 64 63 62 61 60 59 59 58 59 59 57 56 56 56
67 68 68 69 70 71 72 73 73 73 73 74 74 74 74 72 70 69 70 71 69 70 70 68 68 70 69 67 65 64 63 61 61 59 59 59 58 57 57 58 56 57 54
66 67 67 70 70 71 71 72 73 73 73 74 74 74 71 68 66 67 68 71 70 69 69 68 68 67 68 67 65 65 62 60 60 59 59 58 58 58 58 58 57 56 54
69 68 69 70 70 71 71 72 73 74 74 74 74 74 68 65 64 65 68 70 69 67 67 67 66 66 65 64 63 63 62 60 60 60 58 58 58 58 58 57 56 57 56
71 71 71 71 71 72 72 72 72 73 74 74 75 71 66 64 63 64 66 69 68 66 67 67 66 65 64 63 61 61 59 58 58 59 58 58 59 60 58 57 57 58 59
71 72 72 73 73 72 73 73 73 74 74 75 74 69 65 63 62 63 64 69 68 66 65 65 68 66 64 63 62 60 58 58 60 62 61 60 61 61 59 59 57 56 56
69 71 72 72 72 73 73 74 74 74 74 75 72 68 66 62 59 60 61 70 68 66 62 65 66 64 63 63 61 59 57 58 60 60 61 61 60 61 59 58 58 56 57
68 69 70 73 71 71 73 74 75 74 74 72 69 67 65 62 59 59 60 65 68 66 63 60 61 61 61 61 63 60 59 59 60 60 60 60 60 58 59 60 58 58 57
65 69 70 73 72 71 71 71 71 73 73 69 67 67 64 61 59 58 61 61 64 65 65 59 56 58 59 59 62 63 60 58 58 59 60 59 57 57 58 59 60 61 62
64 66 69 71 70 70 67 66 69 70 70 68 67 65 64 62 58 58 59 61 64 65 63 59 55 55 56 56 60 60 59 58 59 58 57 58 58 57 58 58 62 62 61
63 64 67 69 66 65 63 63 63 62 60 59 65 64 63 59 58 59 60 61 61 59 56 54 53 55 57 55 55 57 59 60 60 59 60 58 59 59 57 60 60 61 60
63 63 65 67 67 58 55 58 62 61 60 58 62 66 64 60 59 59 60 62 62 59 56 54 56 58 57 54 55 55 57 59 59 59 61 60 59 59 58 60 59 60 58
61 63 64 66 64 57 54 54 51 52 51 53 54 60 57 62 56 53 55 58 60 60 60 56 58 60 62 62 62 63 62 62 61 59 59 59 58 58 58 59 58 57 56
60 62 60 64 66 59 56 54 53 49 51 53 54 52 53 51 51 52 53 54 55 59 61 61 60 59 59 59 59 60 59 59 61 60 58 59 60 58 58 57 57 57 58
60 61 60 62 62 61 58 57 57 56 56 52 50 52 52 52 52 52 52 54 58 57 59 58 58 58 58 58 57 57 57 57 58 59 61 60 60 61 61 58 58 57 57
59 60 61 61 63 61 60 60 59 58 54 51 48 48 48 49 49 50 49 54 56 56 58 57 57 57 56 56 56 56 55 55 55 56 56 56 56 57 59 60 61 60 59
59 60 61 60 62 59 58 57 57 54 51 49 48 45 46 47 49 51 52 53 53 56 56 55 54 55 56 56 56 55 55 54 52 52 52 52 53 54 55 55 56 57 59
60 61 61 60 59 58 56 56 54 52 51 51 51 50 48 49 50 50 52 51 51 52 54 53 53 53 53 52 52 53 53 52 51 52 52 51 50 50 50 51 53 54 55
61 60 59 60 59 57 55 56 55 54 52 52 49 49 47 48 51 50 48 48 49 49 49 49 48 48 48 48 49 49 48 46 46 46 46 46 48 50 50 50 50 49 51
58 59 59 60 59 57 57 56 57 55 52 51 49 47 47 49 48 48 47 48 48 48 48 48 47 47 47 47 47 46 44 44 43 43 44 43 44 44 45 46 48 49 50
55 56 56 56 57 56 54 54 52 49 48 49 48 47 47 47 47 47 47 48 47 48 48 47 47 46 46 46 45 44 42 42 42 41 42 43 43 43 43 43 43 44 45
53 52 52 52 52 51 50 49 49 49 49 48 48 48 47 46 46 46 46 46 46 46 46 46 45 45 44 43 42 41 40 40 41 41 42 42 42 42 43 43 44 44 44
52 52 51 52 51 51 50 50 49 49 49 48 48 48 48 47 47 46 46 45 45 45 45 44 44 44 44 43 42 40 40 40 40 39 40 40 41 42 43 43 43 43 43